Wind_Speed
104 105 107 107 109 109 109 109 109 110 109 108 108 107 106 107 108 108 108 107 106 104 102 103 103 102 102 102 101 99 99 100 99 99 97 97 96 98 96 98 98 96 94 94 94 94 95 91 92 89 86 85 81 80
99 106 108 108 108 109 111 111 111 111 111 110 111 112 112 111 111 112 113 113 112 110 109 111 110 111 109 109 107 106 106 105 105 105 105 103 103 100 98 96 93 92 90 90 86 87 84 82 79 75 74 74 74 72
93 96 99 106 111 112 113 112 113 115 115 114 113 115 116 116 116 117 118 118 118 116 114 115 116 115 112 112 113 110 109 109 108 107 105 101 99 95 89 88 87 83 77 72 72 72 71 67 66 67 67 68 66 65
95 96 96 99 103 106 108 112 114 115 116 117 117 118 117 118 118 116 117 116 116 116 112 113 116 114 114 114 114 111 110 108 105 102 99 97 91 85 86 82 75 74 69 65 60 66 60 64 64 64 65 63 59 55
99 99 100 100 101 102 104 107 109 108 108 109 109 109 110 111 110 110 111 110 109 109 106 108 111 113 112 111 110 109 107 104 101 99 94 90 87 82 77 70 67 69 65 59 58 60 57 65 61 57 56 52 49 49
95 96 97 96 96 97 100 100 102 103 105 106 106 106 106 105 104 103 104 103 103 104 103 105 106 111 106 107 107 106 105 104 101 95 90 86 82 78 71 67 73 63 57 55 57 55 58 61 56 52 53 52 52 55
83 86 90 91 93 93 94 95 96 96 96 96 96 96 94 93 92 93 93 95 95 93 92 91 92 97 92 94 97 97 99 100 98 94 90 86 83 77 70 72 71 60 58 57 58 59 57 56 54 51 53 54 53 54
69 72 77 80 83 84 85 85 86 87 87 87 87 86 84 84 83 82 81 80 78 77 73 70 74 74 74 76 79 80 83 86 86 85 87 87 84 78 71 78 66 65 63 60 57 56 57 53 54 54 56 55 50 39
57 59 61 63 65 68 70 72 73 74 74 73 72 71 71 70 68 64 65 64 63 62 60 59 58 57 61 60 60 62 66 69 71 72 74 77 77 76 80 71 67 63 61 58 56 56 55 51 51 54 53 42 34 29
48 49 51 52 53 55 57 59 60 60 59 60 61 59 57 55 54 54 53 52 50 47 45 43 43 45 44 45 45 48 51 55 59 62 63 63 66 69 68 66 64 63 60 58 55 53 50 49 48 46 29 26 25 20
40 41 42 43 43 44 45 47 48 47 46 47 47 46 45 43 41 40 38 34 32 31 30 31 32 32 32 34 36 38 40 42 46 48 52 55 55 53 56 58 59 57 56 53 48 46 45 46 37 29 25 21 14 13
30 31 32 33 34 35 35 35 35 37 37 35 33 32 30 28 27 25 23 25 24 24 25 26 25 25 25 26 27 29 31 32 34 35 40 43 45 47 46 45 46 47 45 45 43 42 39 28 22 19 16 11 9 12
23 24 25 25 26 26 26 25 25 25 24 23 22 21 21 21 20 20 19 18 18 21 21 21 21 20 21 22 23 24 23 22 21 25 30 32 36 40 39 37 38 39 39 37 37 28 20 13 11 11 10 9 6 10
15 16 16 16 16 16 16 17 17 17 17 17 17 18 19 19 20 20 20 20 21 21 20 19 17 17 19 20 20 19 18 20 22 19 17 21 28 28 29 30 30 29 29 24 18 13 8 2 6 7 6 6 8 10
11 11 11 12 13 12 12 12 12 13 14 15 16 18 21 21 22 21 22 22 21 20 19 20 19 18 19 20 22 22 21 18 17 17 16 19 18 21 23 20 17 15 15 13 8 4 3 2 2 3 5 10 12 12
14 14 16 16 17 17 18 19 19 19 19 19 20 22 24 25 25 26 26 25 25 22 19 18 20 21 24 22 22 20 21 21 20 20 19 18 18 17 13 16 17 16 13 10 10 7 3 4 1 5 7 7 9 12
17 16 16 18 20 21 24 25 26 27 27 28 29 29 28 28 28 28 27 25 24 22 22 21 22 23 23 24 24 22 22 21 21 21 22 23 21 20 24 21 22 20 19 16 15 12 9 9 5 4 6 7 8 8
27 27 27 30 31 32 33 33 32 30 32 34 34 31 29 26 24 25 26 28 27 28 27 25 23 23 24 26 23 21 25 27 29 31 30 31 25 17 18 18 23 21 21 18 14 15 14 14 15 16 11 10 12 14
33 35 37 36 38 41 40 40 39 36 37 36 34 31 29 27 26 25 26 28 27 29 27 29 28 24 23 27 24 19 22 24 26 31 32 33 31 31 30 17 16 13 12 13 13 15 17 19 19 20 20 21 21 22
36 39 39 39 39 39 38 38 38 39 39 40 38 36 30 26 25 26 29 29 30 31 30 31 31 30 26 26 24 24 22 27 34 32 32 30 30 26 25 20 18 18 17 18 20 20 20 23 24 26 28 29 30 33
40 40 39 37 33 29 27 29 31 31 30 30 40 45 35 31 34 34 31 30 30 28 27 25 25 24 23 25 24 23 23 25 26 29 24 19 19 22 20 16 16 18 18 20 24 25 23 23 25 26 28 29 29 29
43 41 41 40 36 34 35 39 39 35 33 35 40 37 37 35 34 33 31 30 32 33 33 34 33 30 28 29 28 26 22 22 20 20 19 18 18 17 18 17 17 18 20 22 23 22 21 20 21 22 23 25 26 27
43 42 41 37 37 38 40 40 39 40 38 38 39 38 36 37 37 34 33 35 36 33 30 28 26 23 22 22 20 18 18 17 16 14 13 13 13 13 13 14 16 16 16 14 14 14 15 14 14 13 13 13 13 13
40 40 41 39 38 38 39 41 43 40 42 43 41 39 37 35 34 32 32 31 29 25 24 24 22 19 17 17 16 15 13 13 13 12 11 10 11 12 13 13 13 12 10 10 9 8 8 8 8 8 8 7 7 8
36 31 32 35 38 36 36 35 39 42 40 39 38 37 36 33 30 27 24 21 20 19 17 16 15 13 11 10 9 9 8 9 9 9 9 9 8 8 8 9 9 7 4 3 3 2 1 2 2 3 4 5 7 8
34 35 33 33 33 33 32 27 33 38 35 35 34 30 26 21 20 18 17 17 16 15 13 8 8 7 7 6 6 6 8 7 6 6 6 6 7 7 5 3 3 3 4 5 6 6 6 7 7 8 9 11 13 15
29 30 30 31 27 27 30 30 30 31 30 31 27 22 20 18 16 13 11 8 7 6 4 6 9 9 8 8 6 5 6 6 6 6 6 7 8 9 9 10 11 11 10 9 7 6 6 8 10 12 14 16 18 19
28 27 26 26 26 24 21 21 22 25 27 22 19 16 16 14 11 6 3 5 5 8 11 13 12 11 8 6 7 10 10 9 8 10 12 15 16 16 15 14 11 9 8 7 7 8 10 12 14 16 19 22 24 27
23 20 18 17 18 20 22 23 22 20 18 17 15 13 9 8 6 8 7 8 12 14 14 14 13 11 10 9 12 16 20 20 19 19 18 17 16 13 10 8 6 6 7 9 11 13 16 19 21 24 26 28 30 31
31 27 26 22 20 18 17 20 21 20 20 18 15 13 12 9 10 13 13 12 14 15 15 16 15 18 19 20 20 21 21 20 19 17 14 12 10 8 7 7 9 11 13 14 16 19 22 25 27 28 29 29 30 32
25 25 25 25 25 24 22 20 19 20 20 19 18 16 16 16 16 16 15 13 13 16 20 22 22 23 22 21 20 19 17 14 12 10 8 7 6 6 8 10 13 15 19 22 25 27 29 30 30 30 30 31 32 31
23 24 24 25 26 26 26 24 23 22 21 20 17 15 13 13 15 17 21 23 22 22 22 22 20 19 19 18 14 11 10 8 7 5 5 7 10 13 16 19 22 24 27 29 30 30 31 31 31 31 31 30 30 32
26 27 26 25 25 24 24 22 21 21 21 21 22 23 24 24 24 24 24 23 21 19 17 15 15 14 12 10 8 6 6 6 7 10 13 16 18 20 24 27 27 29 31 32 31 31 30 30 30 30 31 32 32 32
Wind_Direction
245 247 247 248 249 249 250 251 252 252 252 253 254 254 255 256 257 257 257 258 258 257 258 260 261 262 262 263 265 266 267 267 269 270 270 271 273 275 276 277 279 279 280 279 279 280 281 283 284 286 287 287 289 291
247 246 246 248 249 250 250 251 252 252 252 254 254 255 255 256 257 258 258 259 259 259 260 260 261 261 262 263 264 265 266 267 268 270 271 272 274 275 277 277 278 279 281 281 280 282 282 283 283 284 285 286 289 292
247 246 247 249 249 250 250 251 253 253 254 255 256 256 257 258 259 260 260 260 260 260 260 261 262 262 262 262 263 265 266 266 266 269 271 272 274 274 274 276 279 280 279 278 279 281 282 284 285 284 285 289 291 291
246 247 248 249 249 250 251 252 253 253 254 256 256 257 258 259 260 260 261 261 261 260 260 260 261 262 262 263 263 264 265 265 266 267 268 269 270 271 274 277 277 274 275 278 281 279 286 283 283 285 288 290 289 291
247 249 250 251 251 251 251 252 253 254 255 256 257 258 259 260 261 261 261 262 262 261 260 259 258 259 260 261 262 262 262 263 264 266 267 267 267 269 270 273 274 272 274 277 278 279 281 281 285 287 288 290 291 292
250 251 251 251 252 252 253 253 254 255 256 256 257 258 260 262 263 263 263 263 262 260 259 258 257 258 259 259 258 259 259 260 261 262 264 265 265 265 268 271 269 273 277 276 276 281 282 284 287 287 286 291 294 291
251 251 251 252 253 254 255 256 256 257 258 260 261 263 264 265 265 264 262 261 261 263 263 263 262 261 259 256 256 256 256 256 258 259 260 260 261 263 265 264 267 273 274 277 278 281 283 286 288 290 291 291 292 291
252 252 252 252 253 254 256 257 258 259 261 262 262 262 262 262 262 262 264 264 265 264 264 261 258 259 257 254 253 253 253 253 254 254 254 255 257 259 259 260 267 268 272 274 277 279 284 288 288 291 292 293 291 280
251 250 251 251 252 254 256 257 257 258 258 258 259 259 259 259 261 263 262 263 262 260 259 256 256 254 253 253 252 250 250 249 249 249 249 250 251 252 254 260 263 266 269 272 276 281 283 286 289 290 291 286 278 269
250 250 250 250 251 252 252 253 254 255 255 254 254 255 257 258 257 257 257 257 256 256 254 252 251 248 248 246 245 244 243 243 243 243 244 245 245 248 252 254 258 262 267 272 278 281 282 286 288 289 282 278 269 257
247 246 247 248 250 251 251 251 252 252 252 250 250 250 251 250 250 250 252 253 252 248 245 241 238 236 233 233 235 236 237 240 241 240 238 239 241 244 247 251 255 260 266 273 274 279 283 288 284 276 272 266 252 241
243 243 242 243 244 245 245 244 244 243 243 243 243 243 243 242 242 243 241 238 235 229 223 220 219 221 221 222 223 226 231 232 234 234 233 234 235 240 245 250 253 258 264 269 276 282 287 280 273 271 266 253 241 236
234 235 236 237 237 238 237 235 233 232 233 234 235 235 230 225 219 212 212 207 199 199 200 198 198 197 200 204 207 215 221 225 221 221 223 227 229 235 243 247 251 257 263 271 279 279 274 269 270 268 259 256 239 239
220 222 222 223 223 223 224 222 221 220 218 217 215 211 205 198 194 191 184 179 177 178 178 178 182 178 179 185 195 198 196 196 201 208 208 218 227 231 238 242 245 254 265 263 251 247 267 288 294 268 222 222 217 225
196 193 191 187 184 181 176 171 170 174 177 178 179 177 172 168 167 166 162 160 160 164 166 163 161 163 171 177 174 174 173 171 171 175 184 203 211 219 230 241 245 230 221 214 224 202 292 302 324 173 187 201 207 216
154 157 159 158 156 154 152 149 148 147 149 146 147 148 153 152 150 147 146 147 147 148 152 158 156 159 158 160 159 156 155 162 170 176 182 190 199 210 198 186 177 176 174 183 171 187 247 214 124 126 143 163 198 215
131 131 132 132 134 135 136 135 136 132 133 135 135 135 137 140 141 142 144 144 142 146 146 149 148 151 149 148 147 151 158 161 161 168 163 163 168 165 167 166 173 181 183 191 190 208 225 212 197 188 156 162 184 199
120 121 124 125 126 125 123 123 120 126 131 133 131 132 131 129 131 134 137 135 137 135 133 132 133 138 142 140 133 146 150 155 149 152 156 159 146 159 172 180 189 202 208 216 238 238 246 241 241 252 246 237 248 246
117 120 121 121 122 123 122 124 128 130 129 125 126 130 131 132 135 138 142 137 140 134 131 131 128 130 138 134 130 145 144 143 154 161 168 171 169 177 192 191 184 213 229 229 228 235 244 254 257 257 259 265 268 265
115 119 120 121 124 126 130 135 136 134 131 129 125 119 116 120 124 127 126 125 128 126 133 137 137 141 143 139 140 143 145 150 163 171 178 186 188 189 201 213 220 228 230 237 245 253 257 258 262 263 264 267 267 267
110 111 110 111 112 113 119 126 126 121 117 124 128 121 126 122 118 114 118 121 124 128 127 129 132 142 147 136 139 142 146 155 163 180 187 193 205 215 220 233 239 251 252 255 261 268 272 274 272 270 268 267 267 267
106 107 106 104 104 105 113 120 118 118 115 113 118 119 119 121 123 122 125 123 126 128 127 119 116 118 126 130 133 137 142 146 155 171 186 200 210 222 228 234 242 253 261 267 271 269 269 269 269 270 270 270 270 269
110 108 109 109 112 117 117 115 111 110 111 112 116 117 120 120 117 117 121 119 118 117 119 121 121 123 130 135 144 150 157 166 174 186 197 208 217 224 233 246 261 258 258 258 261 270 275 274 272 276 282 283 281 282
116 116 117 119 118 118 117 117 112 111 113 113 113 110 108 109 108 107 109 114 116 120 128 132 133 133 137 145 150 155 170 185 197 203 209 225 239 249 259 259 255 255 263 273 276 281 275 274 281 292 302 306 307 308
99 110 120 119 118 118 121 120 118 118 115 113 112 112 109 106 109 112 116 115 121 126 129 135 139 145 150 161 172 181 192 206 211 225 238 241 239 236 234 242 252 261 269 287 293 299 1 66 39 0 345 343 343 340
87 93 107 126 127 125 117 115 121 121 121 119 114 111 114 111 110 111 113 123 131 136 135 135 136 144 148 159 171 182 188 188 189 190 199 215 221 213 213 183 138 118 104 97 89 79 62 48 25 2 344 333 327 323
93 104 102 110 127 122 122 124 126 127 123 122 119 123 122 126 128 121 118 137 155 162 145 119 135 141 134 132 137 151 159 159 160 154 124 112 116 115 111 110 108 104 97 91 75 51 19 354 342 336 329 323 319 316
108 111 111 114 117 121 126 127 128 127 128 132 132 125 114 118 122 100 56 76 96 134 136 140 136 127 127 131 131 130 130 125 118 116 114 112 110 107 107 106 100 85 61 37 18 4 353 343 335 329 325 322 319 317
105 109 114 119 122 124 125 124 125 127 126 127 123 116 114 123 123 114 105 95 102 118 125 120 120 121 115 108 112 114 112 109 108 108 106 104 101 95 88 79 68 40 15 0 351 340 332 328 326 324 321 319 318 318
87 87 88 94 111 125 130 136 137 136 134 127 121 117 115 121 119 116 118 112 111 112 114 114 113 114 114 113 111 109 109 111 113 110 101 92 85 77 59 27 7 349 338 330 326 324 323 321 319 319 319 318 319 319
92 91 90 93 98 104 112 119 121 119 115 113 114 117 117 117 118 119 117 115 111 110 111 113 114 114 112 110 109 106 103 95 88 82 75 62 37 12 350 336 329 326 326 325 323 320 318 317 318 319 320 319 319 319
101 101 103 102 102 104 106 105 106 108 110 112 114 115 115 111 109 107 108 109 110 110 110 110 110 111 112 111 105 96 92 91 84 55 17 354 338 331 328 327 325 322 319 318 316 315 315 316 316 317 316 317 317 317
94 95 96 97 100 99 98 99 101 103 104 103 103 103 103 103 104 106 107 107 106 106 105 107 113 119 114 102 91 72 49 25 359 342 333 328 323 320 318 316 316 316 316 315 316 316 316 316 315 315 315 316 318 320
Height
10531 10537 10543 10549 10556 10562 10568 10573 10579 10586 10591 10596 10601 10607 10613 10619 10622 10625 10632 10638 10644 10650 10651 10653 10655 10657 10661 10664 10667 10675 10675 10676 10680 10679 10682 10683 10686 10685 10689 10685 10685 10687 10689 10686 10683 10679 10675 10680 10673 10671 10666 10661 10660 10658
10501 10507 10513 10519 10525 10532 10538 10543 10549 10555 10560 10566 10571 10576 10581 10588 10593 10594 10599 10606 10613 10622 10623 10619 10625 10626 10634 10636 10642 10645 10647 10652 10652 10652 10656 10661 10661 10665 10664 10659 10662 10661 10665 10660 10661 10653 10654 10652 10651 10651 10644 10641 10641 10638
10472 10478 10483 10489 10495 10501 10508 10512 10519 10524 10530 10535 10541 10544 10550 10556 10561 10564 10565 10573 10580 10589 10592 10591 10589 10595 10604 10604 10611 10619 10619 10619 10623 10628 10632 10637 10639 10640 10641 10636 10641 10642 10640 10640 10638 10633 10632 10634 10632 10628 10625 10623 10622 10619
10443 10449 10454 10461 10466 10471 10476 10482 10488 10493 10500 10506 10511 10513 10520 10525 10528 10531 10531 10539 10544 10554 10562 10560 10555 10564 10572 10574 10580 10588 10584 10590 10594 10601 10608 10613 10615 10619 10616 10619 10622 10613 10620 10622 10626 10613 10620 10612 10612 10611 10608 10606 10604 10601
10413 10419 10425 10431 10437 10443 10447 10453 10459 10465 10469 10473 10479 10484 10488 10493 10497 10500 10500 10504 10511 10515 10527 10530 10524 10528 10537 10545 10548 10553 10556 10560 10566 10574 10583 10588 10590 10597 10595 10604 10599 10593 10602 10609 10608 10602 10604 10591 10596 10596 10592 10591 10588 10585
10383 10390 10397 10402 10408 10413 10419 10425 10430 10436 10441 10446 10450 10456 10459 10463 10466 10468 10467 10472 10474 10479 10488 10491 10493 10489 10510 10513 10516 10521 10527 10531 10538 10547 10556 10563 10566 10572 10582 10586 10568 10584 10591 10592 10588 10589 10583 10578 10581 10581 10576 10575 10573 10567
10354 10360 10367 10373 10379 10385 10391 10397 10402 10409 10414 10419 10423 10427 10430 10432 10434 10432 10437 10439 10442 10448 10456 10462 10463 10458 10474 10478 10481 10492 10497 10504 10512 10523 10534 10539 10543 10554 10564 10559 10557 10571 10574 10576 10574 10571 10567 10566 10565 10565 10561 10560 10557 10552
10328 10334 10340 10346 10352 10358 10365 10371 10377 10382 10387 10391 10395 10398 10402 10403 10402 10406 10413 10414 10418 10422 10427 10432 10429 10436 10442 10447 10454 10463 10471 10478 10490 10499 10507 10513 10522 10534 10544 10531 10551 10554 10557 10559 10559 10558 10554 10554 10551 10549 10545 10542 10539 10536
10308 10313 10318 10323 10329 10335 10341 10347 10352 10356 10360 10365 10370 10374 10376 10379 10384 10389 10388 10392 10395 10399 10402 10406 10411 10416 10419 10426 10435 10442 10450 10458 10468 10476 10483 10492 10504 10515 10511 10528 10534 10538 10540 10543 10543 10544 10541 10541 10539 10533 10530 10527 10526 10525
10291 10296 10300 10306 10311 10317 10322 10326 10331 10335 10341 10346 10350 10353 10358 10363 10366 10368 10370 10374 10377 10382 10386 10391 10396 10400 10406 10413 10419 10427 10432 10439 10446 10455 10465 10476 10484 10492 10505 10511 10518 10522 10526 10529 10531 10529 10527 10527 10525 10520 10518 10517 10517 10518
10278 10282 10286 10292 10297 10302 10306 10310 10315 10320 10325 10329 10333 10338 10343 10347 10351 10354 10357 10363 10366 10369 10373 10378 10383 10390 10396 10402 10408 10414 10421 10426 10433 10442 10450 10459 10470 10482 10489 10496 10503 10508 10512 10515 10517 10516 10515 10514 10510 10509 10509 10510 10511 10511
10267 10271 10276 10280 10286 10290 10294 10298 10303 10308 10313 10318 10323 10327 10332 10337 10341 10345 10349 10352 10356 10361 10365 10371 10378 10384 10390 10395 10402 10406 10412 10418 10424 10432 10440 10450 10462 10470 10478 10485 10492 10497 10500 10502 10504 10503 10503 10501 10501 10502 10502 10504 10505 10506
10259 10263 10268 10272 10276 10281 10286 10291 10295 10300 10305 10310 10315 10320 10325 10329 10334 10338 10342 10346 10352 10356 10362 10368 10374 10381 10385 10391 10395 10401 10408 10415 10422 10427 10435 10445 10454 10460 10469 10476 10482 10487 10489 10492 10493 10494 10495 10496 10496 10496 10496 10498 10500 10501
10254 10258 10263 10267 10272 10276 10280 10285 10289 10294 10299 10305 10310 10315 10320 10326 10331 10336 10340 10345 10351 10356 10362 10368 10373 10379 10384 10389 10394 10400 10406 10411 10417 10426 10436 10442 10447 10455 10461 10467 10472 10477 10480 10483 10486 10488 10490 10491 10491 10491 10493 10495 10495 10497
10252 10256 10261 10265 10269 10274 10278 10282 10287 10292 10297 10303 10308 10313 10319 10325 10331 10337 10342 10348 10354 10359 10364 10368 10373 10378 10382 10387 10392 10399 10405 10412 10420 10427 10433 10438 10445 10450 10455 10461 10466 10470 10474 10478 10483 10485 10487 10488 10487 10487 10488 10489 10491 10494
10252 10256 10260 10265 10269 10274 10278 10283 10289 10294 10299 10305 10311 10317 10322 10327 10333 10339 10345 10350 10354 10360 10366 10370 10374 10378 10383 10389 10395 10402 10408 10414 10420 10426 10431 10436 10442 10447 10454 10459 10464 10469 10473 10477 10481 10483 10484 10486 10486 10485 10486 10488 10490 10492
10255 10260 10264 10269 10274 10279 10283 10288 10293 10299 10304 10310 10316 10322 10327 10333 10339 10344 10349 10354 10358 10363 10368 10373 10378 10383 10388 10394 10399 10405 10409 10415 10422 10427 10432 10438 10444 10450 10454 10460 10464 10468 10472 10475 10478 10481 10482 10483 10484 10484 10485 10486 10488 10489
10261 10266 10271 10275 10280 10285 10291 10296 10301 10307 10312 10318 10324 10330 10336 10342 10347 10351 10355 10359 10364 10369 10374 10380 10385 10391 10395 10399 10403 10409 10414 10418 10425 10431 10436 10441 10448 10452 10456 10459 10463 10466 10470 10473 10475 10476 10478 10480 10481 10482 10482 10483 10483 10484
10271 10275 10280 10285 10289 10294 10300 10305 10313 10319 10323 10328 10335 10341 10345 10350 10354 10357 10362 10366 10370 10374 10379 10385 10391 10397 10402 10404 10410 10415 10419 10424 10429 10434 10439 10443 10447 10451 10455 10459 10463 10465 10467 10469 10470 10471 10472 10472 10473 10474 10474 10475 10475 10476
10283 10287 10291 10296 10301 10306 10311 10316 10321 10326 10331 10335 10342 10347 10354 10358 10362 10366 10370 10375 10378 10382 10387 10390 10395 10400 10404 10408 10413 10419 10423 10428 10433 10437 10440 10444 10448 10452 10456 10458 10460 10462 10463 10465 10465 10466 10466 10465 10465 10466 10466 10467 10466 10466
10296 10301 10306 10311 10316 10321 10326 10330 10334 10338 10342 10345 10348 10354 10361 10367 10371 10376 10380 10383 10387 10390 10394 10399 10402 10407 10410 10414 10418 10422 10426 10431 10436 10439 10443 10446 10448 10451 10453 10455 10457 10457 10458 10458 10459 10458 10457 10456 10455 10455 10455 10454 10454 10454
10311 10317 10321 10326 10331 10335 10338 10341 10345 10349 10353 10357 10361 10366 10370 10374 10378 10382 10386 10390 10394 10397 10401 10405 10409 10413 10416 10419 10423 10426 10430 10433 10436 10440 10443 10445 10448 10450 10450 10450 10451 10451 10451 10451 10450 10450 10449 10448 10447 10446 10444 10444 10443 10442
10326 10330 10335 10339 10342 10346 10349 10353 10357 10361 10365 10368 10371 10375 10379 10382 10385 10389 10393 10397 10401 10405 10409 10412 10415 10418 10421 10424 10426 10430 10432 10435 10437 10439 10441 10443 10444 10445 10446 10446 10445 10445 10445 10445 10445 10444 10443 10441 10440 10439 10438 10437 10437 10436
10340 10343 10346 10349 10353 10356 10359 10363 10366 10371 10374 10378 10382 10385 10389 10392 10395 10399 10402 10406 10408 10411 10415 10417 10420 10423 10424 10426 10428 10430 10432 10434 10435 10437 10438 10439 10439 10440 10440 10440 10439 10440 10440 10440 10439 10439 10438 10437 10436 10436 10435 10434 10433 10431
10355 10356 10357 10361 10363 10367 10371 10373 10375 10380 10384 10387 10391 10395 10398 10401 10404 10406 10409 10411 10414 10416 10417 10419 10422 10423 10425 10427 10428 10430 10431 10432 10433 10433 10434 10435 10435 10436 10436 10436 10436 10436 10436 10436 10436 10436 10436 10435 10435 10435 10434 10432 10431 10429
10367 10368 10370 10371 10374 10377 10380 10383 10385 10389 10393 10396 10399 10403 10405 10407 10410 10412 10414 10416 10417 10418 10420 10422 10423 10425 10426 10427 10428 10429 10429 10430 10431 10432 10432 10433 10433 10433 10433 10434 10435 10435 10435 10436 10436 10436 10436 10435 10434 10433 10432 10430 10428 10426
10377 10378 10381 10382 10385 10387 10390 10393 10395 10398 10401 10403 10406 10409 10411 10413 10415 10416 10417 10418 10418 10419 10420 10421 10422 10424 10425 10427 10428 10428 10429 10429 10430 10430 10430 10431 10431 10432 10433 10434 10436 10437 10437 10437 10437 10437 10436 10435 10433 10431 10429 10427 10424 10421
10385 10387 10389 10390 10392 10394 10396 10399 10401 10404 10407 10409 10411 10413 10415 10416 10417 10418 10417 10417 10417 10418 10419 10421 10422 10424 10426 10426 10427 10427 10428 10429 10430 10431 10432 10433 10434 10435 10436 10437 10437 10438 10437 10437 10436 10435 10434 10432 10429 10427 10424 10421 10417 10413
10394 10396 10397 10397 10398 10399 10402 10404 10407 10409 10411 10414 10415 10417 10418 10419 10419 10420 10420 10420 10419 10421 10422 10424 10425 10426 10427 10427 10428 10430 10431 10432 10433 10435 10436 10437 10438 10439 10439 10439 10439 10439 10438 10436 10435 10432 10430 10427 10424 10421 10418 10414 10410 10405
10404 10404 10403 10404 10404 10405 10407 10409 10410 10413 10416 10416 10418 10420 10421 10421 10421 10422 10423 10423 10424 10425 10426 10427 10428 10430 10431 10432 10434 10435 10436 10438 10439 10440 10440 10441 10441 10441 10441 10440 10439 10438 10436 10434 10432 10429 10426 10422 10418 10414 10410 10406 10402 10397
10410 10411 10411 10412 10411 10412 10413 10415 10417 10418 10420 10422 10423 10425 10425 10425 10426 10427 10427 10428 10429 10430 10432 10433 10434 10436 10437 10439 10440 10441 10442 10442 10442 10442 10443 10443 10443 10442 10441 10440 10438 10435 10432 10429 10426 10422 10418 10414 10410 10406 10402 10397 10393 10388
10416 10417 10417 10418 10419 10420 10421 10422 10423 10425 10426 10427 10428 10429 10430 10431 10432 10433 10434 10435 10436 10438 10439 10440 10441 10442 10443 10444 10445 10445 10446 10446 10445 10445 10445 10444 10442 10440 10438 10435 10432 10429 10425 10422 10417 10413 10409 10405 10401 10397 10392 10388 10384 10379
10424 10425 10426 10426 10428 10428 10429 10430 10431 10432 10433 10434 10435 10437 10438 10439 10440 10441 10442 10443 10444 10445 10446 10446 10447 10448 10448 10448 10448 10448 10448 10447 10446 10445 10443 10441 10439 10436 10433 10429 10425 10422 10418 10413 10408 10404 10400 10396 10392 10388 10384 10379 10375 10370